Location: Azul
(36.7830°S, 59.8500°W)
Time: 12:06:16
(UTC-03:00)

DX 1 - Pass Details

Date: 27 October 2021
Orbit: 619 x 629 km, 98.4° (Epoch: 29 November)

Event Time Altitude Azimuth Distance (km) Brightness Sun altitude
Rises 20:56:37 0° 348° (NNW) 2,908 ? -17.0°
Reaches altitude 10° 20:59:04 10° 336° (NNW) 2,009 ? -17.4°
Maximum altitude 21:02:49 28° 277° (W) 1,202 ? -18.1°
Drops below altitude 10° 21:06:37 10° 218° (SW) 2,030 ? -18.7°
Sets 21:09:06 0° 205° (SSW) 2,945 ? -19.1°
